• Em Portugal
  • Lista de países
  • Para 7 dias
  • Temperatura da água
  • Mapas de satélite
  • Mapa do tempo
  • Widgets de tempo
  • user-avatar
    Iniciar Sessão

    Previsão horária em Salzburgo

    Hoje, 24 Setembro, Segunda-feira

    Tempo Temperatura Precipitação Vento Pressão Humidade
    00:00 +7°C° 2.7 mm 4 m/s 626 mmHg 97%
    01:00 +5°C° 2.7 mm 4 m/s 626 mmHg 97%
    02:00 +4°C° 1.1 mm 4 m/s 626 mmHg 97%
    03:00 +3°C° 1.1 mm 4 m/s 627 mmHg 97%
    04:00 +1°C° 1.1 mm 4 m/s 627 mmHg 96%
    05:00 0°C° 0.6 mm 4 m/s 627 mmHg 96%
    06:00 +1°C° 0.6 mm 3 m/s 628 mmHg 95%
    07:00 0°C° 0.6 mm 3 m/s 629 mmHg 95%
    08:00 +1°C° 0.2 mm 3 m/s 629 mmHg 91%
    09:00 0°C° 0.2 mm 4 m/s 630 mmHg 87%
    10:00 0°C° 0.2 mm 4 m/s 631 mmHg 84%
    11:00 +1°C° 0.1 mm 4 m/s 632 mmHg 80%
    12:00 +2°C° 0.1 mm 3 m/s 632 mmHg 77%
    13:00 +2°C° 0.1 mm 3 m/s 633 mmHg 73%
    14:00 +2°C° 0.1 mm 3 m/s 632 mmHg 73%
    15:00 +2°C° 0.1 mm 3 m/s 632 mmHg 72%
    16:00 +2°C° 0.1 mm 3 m/s 632 mmHg 72%
    17:00 +1°C° 0.1 mm 3 m/s 632 mmHg 78%
    18:00 +1°C° 0.1 mm 2 m/s 632 mmHg 85%
    19:00 -2°C° 0.1 mm 2 m/s 632 mmHg 91%
    20:00 -2°C° 0 mm 2 m/s 633 mmHg 91%
    21:00 -2°C° 0 mm 2 m/s 633 mmHg 91%
    22:00 -2°C° 0 mm 2 m/s 634 mmHg 91%
    23:00 -2°C° 0 mm 2 m/s 634 mmHg 92%

    Amanhã, 25 Setembro, Terça-feira

    Tempo Temperatura Precipitação Vento Pressão Humidade
    00:00 -3°C° 0 mm 2 m/s 634 mmHg 92%
    01:00 -3°C° 0 mm 2 m/s 634 mmHg 92%
    02:00 -3°C° 0 mm 2 m/s 634 mmHg 92%
    03:00 -3°C° 0 mm 2 m/s 634 mmHg 92%
    04:00 -2°C° 0 mm 1 m/s 634 mmHg 92%
    05:00 -1°C° 0 mm 1 m/s 634 mmHg 91%
    06:00 -1°C° 0 mm 1 m/s 635 mmHg 89%
    07:00 -1°C° 0 mm 1 m/s 635 mmHg 87%
    08:00 +1°C° 0 mm 1 m/s 635 mmHg 79%
    09:00 +2°C° 0 mm 2 m/s 636 mmHg 71%
    10:00 +3°C° 0 mm 2 m/s 636 mmHg 63%
    11:00 +4°C° 0 mm 2 m/s 637 mmHg 59%
    12:00 +5°C° 0 mm 2 m/s 637 mmHg 55%
    13:00 +6°C° 0 mm 2 m/s 637 mmHg 50%
    14:00 +6°C° 0 mm 2 m/s 636 mmHg 52%
    15:00 +6°C° 0 mm 2 m/s 636 mmHg 53%
    16:00 +5°C° 0 mm 2 m/s 636 mmHg 55%
    17:00 +3°C° 0 mm 2 m/s 636 mmHg 65%
    18:00 +2°C° 0 mm 1 m/s 635 mmHg 74%
    19:00 -1°C° 0 mm 1 m/s 635 mmHg 84%
    20:00 -1°C° 0 mm 1 m/s 635 mmHg 85%
    21:00 -1°C° 0 mm 1 m/s 635 mmHg 85%
    22:00 -2°C° 0 mm 1 m/s 636 mmHg 85%
    23:00 -2°C° 0 mm 1 m/s 635 mmHg 82%

    Depois de amanhã, 26 Setembro, Quarta-feira

    Tempo Temperatura Precipitação Vento Pressão Humidade
    00:00 -2°C° 0 mm 1 m/s 635 mmHg 79%
    01:00 -2°C° 0 mm 1 m/s 635 mmHg 76%
    02:00 -2°C° 0 mm 1 m/s 635 mmHg 72%
    03:00 -2°C° 0 mm 1 m/s 635 mmHg 68%
    04:00 -2°C° 0 mm 1 m/s 635 mmHg 64%
    05:00 -1°C° 0 mm 1 m/s 635 mmHg 59%
    06:00 0°C° 0 mm 1 m/s 635 mmHg 55%
    07:00 0°C° 0 mm 1 m/s 636 mmHg 50%
    08:00 +4°C° 0 mm 1 m/s 637 mmHg 44%
    09:00 +7°C° 0 mm 1 m/s 638 mmHg 38%
    10:00 +11°C° 0 mm 1 m/s 639 mmHg 32%
    11:00 +12°C° 0 mm 1 m/s 639 mmHg 32%
    12:00 +13°C° 0 mm 1 m/s 639 mmHg 31%
    13:00 +14°C° 0 mm 1 m/s 639 mmHg 31%
    14:00 +13°C° 0 mm 1 m/s 638 mmHg 37%
    15:00 +13°C° 0 mm 1 m/s 638 mmHg 42%
    16:00 +12°C° 0 mm 1 m/s 637 mmHg 48%
    17:00 +10°C° 0 mm 1 m/s 637 mmHg 58%
    18:00 +7°C° 0 mm 1 m/s 636 mmHg 69%
    19:00 +4°C° 0 mm 1 m/s 635 mmHg 79%
    20:00 +4°C° 0 mm 1 m/s 635 mmHg 76%
    21:00 +4°C° 0 mm 1 m/s 635 mmHg 73%
    22:00 +4°C° 0 mm 1 m/s 636 mmHg 70%
    23:00 +4°C° 0 mm 1 m/s 635 mmHg 65%

    27 Setembro, Quinta-feira

    Tempo Temperatura Precipitação Vento Pressão Humidade
    00:00 +4°C° 0 mm 1 m/s 635 mmHg 60%
    01:00 +4°C° 0 mm 1 m/s 635 mmHg 55%
    02:00 +3°C° 0 mm 1 m/s 635 mmHg 51%
    03:00 +3°C° 0 mm 1 m/s 635 mmHg 48%
    04:00 +3°C° 0 mm 1 m/s 634 mmHg 44%
    05:00 +4°C° 0 mm 1 m/s 634 mmHg 44%
    06:00 +4°C° 0 mm 1 m/s 635 mmHg 44%
    07:00 +5°C° 0 mm 1 m/s 635 mmHg 45%
    08:00 +8°C° 0 mm 1 m/s 636 mmHg 41%
    09:00 +11°C° 0 mm 1 m/s 637 mmHg 38%
    10:00 +13°C° 0 mm 0 m/s 638 mmHg 35%
    11:00 +15°C° 0 mm 1 m/s 638 mmHg 35%
    12:00 +16°C° 0 mm 1 m/s 637 mmHg 34%
    13:00 +18°C° 0 mm 1 m/s 637 mmHg 34%
    14:00 +16°C° 0 mm 1 m/s 637 mmHg 40%
    15:00 +16°C° 0 mm 1 m/s 636 mmHg 46%
    16:00 +15°C° 0 mm 1 m/s 635 mmHg 53%
    17:00 +12°C° 0 mm 1 m/s 634 mmHg 62%
    18:00 +9°C° 0 mm 1 m/s 633 mmHg 71%
    19:00 +6°C° 0 mm 1 m/s 632 mmHg 80%
    20:00 +6°C° 0 mm 1 m/s 632 mmHg 79%
    21:00 +6°C° 0 mm 1 m/s 632 mmHg 78%
    22:00 +6°C° 0 mm 1 m/s 632 mmHg 77%
    23:00 +5°C° 0 mm 1 m/s 631 mmHg 76%

    28 Setembro, Sexta-feira

    Tempo Temperatura Precipitação Vento Pressão Humidade
    00:00 +5°C° 0 mm 1 m/s 631 mmHg 75%
    01:00 +5°C° 0 mm 1 m/s 631 mmHg 74%
    02:00 +5°C° 0 mm 1 m/s 630 mmHg 72%
    03:00 +5°C° 0 mm 1 m/s 630 mmHg 70%
    04:00 +4°C° 0 mm 1 m/s 630 mmHg 68%
    05:00 +5°C° 0 mm 1 m/s 630 mmHg 67%
    06:00 +5°C° 0 mm 1 m/s 630 mmHg 65%
    07:00 +5°C° 0 mm 1 m/s 630 mmHg 64%
    08:00 +8°C° 0 mm 1 m/s 631 mmHg 57%
    09:00 +11°C° 0 mm 1 m/s 632 mmHg 50%
    10:00 +14°C° 0 mm 1 m/s 633 mmHg 44%
    11:00 +15°C° 0 mm 1 m/s 632 mmHg 43%
    12:00 +16°C° 0 mm 1 m/s 632 mmHg 42%
    13:00 +16°C° 0 mm 1 m/s 632 mmHg 41%
    14:00 +16°C° 0 mm 1 m/s 632 mmHg 46%
    15:00 +15°C° 0 mm 1 m/s 631 mmHg 51%
    16:00 +14°C° 0 mm 1 m/s 631 mmHg 56%
    17:00 +12°C° 0 mm 1 m/s 630 mmHg 67%
    18:00 +9°C° 0 mm 1 m/s 629 mmHg 78%
    19:00 +5°C° 0 mm 0 m/s 628 mmHg 89%
    20:00 +5°C° 0 mm 0 m/s 628 mmHg 90%
    21:00 +6°C° 0 mm 1 m/s 628 mmHg 91%
    22:00 +5°C° 0 mm 1 m/s 629 mmHg 93%
    23:00 +5°C° 0 mm 1 m/s 629 mmHg 93%

    29 Setembro, Sábado

    Tempo Temperatura Precipitação Vento Pressão Humidade
    00:00 +5°C° 0 mm 1 m/s 629 mmHg 94%
    01:00 +4°C° 0 mm 1 m/s 629 mmHg 94%
    02:00 +4°C° 0 mm 1 m/s 629 mmHg 95%
    03:00 +4°C° 0 mm 1 m/s 629 mmHg 96%
    04:00 +4°C° 0 mm 1 m/s 629 mmHg 96%
    05:00 +4°C° 0 mm 1 m/s 629 mmHg 95%
    06:00 +4°C° 0 mm 1 m/s 629 mmHg 94%
    07:00 +5°C° 0 mm 1 m/s 629 mmHg 94%
    08:00 +7°C° 0 mm 1 m/s 630 mmHg 83%
    09:00 +9°C° 0 mm 1 m/s 631 mmHg 73%
    10:00 +12°C° 0 mm 1 m/s 632 mmHg 63%
    11:00 +12°C° 0 mm 2 m/s 632 mmHg 60%
    12:00 +13°C° 0 mm 2 m/s 632 mmHg 57%
    13:00 +14°C° 0 mm 2 m/s 632 mmHg 55%
    14:00 +13°C° 0 mm 2 m/s 632 mmHg 58%
    15:00 +13°C° 0 mm 2 m/s 631 mmHg 62%
    16:00 +12°C° 0 mm 2 m/s 631 mmHg 65%
    17:00 +9°C° 0 mm 2 m/s 631 mmHg 74%
    18:00 +7°C° 0 mm 2 m/s 630 mmHg 83%
    19:00 +6°C° 0 mm 1 m/s 629 mmHg 92%
    20:00 +6°C° 0 mm 1 m/s 629 mmHg 92%
    21:00 +4°C° 0 mm 2 m/s 629 mmHg 92%
    22:00 +4°C° 0 mm 2 m/s 629 mmHg 92%
    23:00 +4°C° 0 mm 2 m/s 629 mmHg 92%
    Mostrar mais